Regional Weather Roundup
Issued by NWS

Home | Current Version | Previous Version | Graphics & Text | Print | Product List | Glossary Off
Versions: 1 2 3 4 5 6 7 8 9 10 11 12 13 14 15 16 17 18 19 20 21 22 23 24 25 26 27 28 29 30 31 32 33 34 35 36 37 38 39 40 41 42 43 44 45 46 47 48 49 50

000
ASUS43 KTOP 202008
RWRKS

WEATHER ROUNDUP FOR KANSAS
NATIONAL WEATHER SERVICE GOODLAND KS
300 PM CDT MON APR 20 2015

NOTE:  "FAIR" INDICATES FEW OR NO CLOUDS BELOW 12,000 FEET WITH NO
SIGNIFICANT WEATHER AND/OR OBSTRUCTIONS TO VISIBILITY.

KSZ001>006-013>018-027>032-041>047-202100-
NORTHWEST KANSAS

CITY           SKY/WX    TMP DP  RH WIND       PRES   REMARKS
GOODLAND       MOSUNNY   56  29  35 W12       29.94F
HAYS           MOSUNNY   63  25  23 W24G32    29.93F
HILL CITY      MOSUNNY   58  27  30 NW14G24   29.93F
RUSSELL        MOSUNNY   61  24  24 W16G33    29.91F
$$

KSZ061>065-074>080-084>089-202100-
SOUTHWEST KANSAS

CITY           SKY/WX    TMP DP  RH WIND       PRES   REMARKS
DODGE CITY     CLOUDY    57  23  26 W8G18     29.97F
ELKHART          N/A     62  31  31 W8          N/A
GARDEN CITY    CLOUDY    58  25  28 SW10G16   29.97F
GREAT BEND     MOSUNNY   59  30  33 NW14G23   29.94F
LIBERAL        MOSUNNY   57  27  30 SW8       30.01F
PRATT          PTSUNNY   61  28  29 W17       29.97F
$$

KSZ066>073-081>083-090>101-202100-
SOUTHEAST KANSAS

CITY           SKY/WX    TMP DP  RH WIND       PRES   REMARKS
CHANUTE        MOSUNNY   60  29  30 NW22G31   29.92F
COFFEYVILLE    SUNNY     60  31  33 NW22G29   29.94F
HUTCHINSON     CLOUDY    63  30  28 W16       29.94F
MEDICINE LODGE   N/A     63  28  26 NW10      29.96F
NEWTON         PTSUNNY   57  28  33 NW15G21   29.95F
PARSONS        MOSUNNY   61  34  36 NW14G25   29.94F
WICHITA INTL   PTSUNNY   63  31  30 NW20G26   29.94F
WICHITA JABRA  PTSUNNY   61  30  31 W20G28    29.94F
WICHITA MCCONL MOSUNNY   61  32  33 NW14G22   29.94F
WINFIELD       MOSUNNY   63  34  33 W17G26    29.97F
$$

KSZ007>012-019>026-033>040-048>060-102>105-202100-
NORTHEAST KANSAS

CITY           SKY/WX    TMP DP  RH WIND       PRES   REMARKS
CONCORDIA      PTSUNNY   58  23  26 NW20G31   29.89F
EMPORIA        MOSUNNY   57  26  30 NW20G32   29.90F
LAWRENCE       SUNNY     59  24  26 NW25G33   29.86F
MANHATTAN      MOSUNNY   61  24  24 NW14G30   29.89F
MARYSVILLE     CLOUDY    59  28  31 NW20G30   29.86S
OLATHE IND     SUNNY     58  23  26 NW23G37   29.86F
OLATHE EXE     SUNNY     57  21  24 NW21G32   29.84S
SALINA         PTSUNNY   63  28  26 W25G31    29.91F
TOPEKA BILLARD SUNNY     59  25  27 NW17G33   29.87F
TOPEKA FORBES  MOSUNNY   60  28  29 NW23G33   29.86F
$$



USA.gov is the U.S. government's official web portal to all federal, state and local government web resources and services.